Location: Holyhead Bay
(53.3667°N, 4.6667°W)
Time: 19:36:31
(UTC+00:00)

NOSS 3-3 (C) - Pass Details

Date: 24 November 2020
Orbit: 820 x 1392 km, 63.4° (Epoch: 14 January)

Event Time Altitude Azimuth Distance (km) Brightness Sun altitude
Rises 19:00:34 0° 308° (NW) 3,814 7.8 -24.6°
Reaches altitude 10° 19:03:07 10° 312° (NW) 2,938 7.1 -25.0°
Maximum altitude 19:10:08 62° 33° (NNE) 1,342 4.5 -26.1°
Enters shadow 19:11:38 53° 77° (ENE) 1,480 4.5 -26.3°
